Showing default

GOES 11, 26352

Orbit data source: Space-Track

GOES 11, 26352 is a payload satellite owned by NOAA (US) in GEO that was launched on Wed, 03 May 2000 UTC via an ATLAS IIA launch vehicle from the Air Force Eastern Test Range (AFETR). Payloads include a variety of satellites, spacecraft, and rockets equipped with specific instruments for various scientific and technological missions. These include communications satellites like Starlink; space stations such as the ISS; scientific satellites like the Hubble; Earth observation satellites from companies like Planet Labs, Umbra, and HawkEye 360; GPS; miniature CubeSats for education and research; and military/defense satellites.

Not visible in the next 10 days
GOES 11 details
Identifier
26352, 2000-022A
Orbit
GEO
Last TLE update2 days ago
Origin
Flag of USNOAA (US)
ManufacturerSS/Loral
MissionNon-operational Civil Weather
Bus & MotorFS-1300, R-4D-11-164
Mass2,105 kg wet, 980 kg dry
Launch date (UTC)
2000-05-03 (25 years ago)
Launch vehicle
ATLAS IIA
Launch site
Air Force Eastern Test Range (AFETR)
Object type
Payload
Rocket body
Debris
Shape & HBRBox + 2 Pan, 26.9 m
Radar Cross Section30.986 m², Large (>1 m²)

Expand to show TLE details & history

TLE from 2 days ago
0 GOES 11
1 26352U 00022A   24359.75258549  .00000074  00000-0  00000-0 0  9991
2 26352  10.6537  51.5225 0006047 217.1499 144.4318  0.99040443 47135
Epoch: 2024-12-24T18:03Z
Definitive object data (Epoch: 2024-12-24T18:03:43.386Z)
Latitude0.30781°
Longitude48.42627°
Altitude36,155.855 km
Speed3.061 km/s
True Right ascension03h 32m 27s
True Declination0° 18' 27"
Sunlit
Object was in daylight at TLE epoch
Visualization TLE readout
Latitude-9.4878°
Longitude-70.86283°
Altitude36,113.164 km
Speed3.064 km/s
Apparent Right ascension19h 49m 03s
Apparent Declination-13° 31' 03"
Sunlit
Object is in daylight
Visualization observer readout
Local Sidereal Time09:52:33
Azimuth54.48° ENE
Elevation-52.188°
Doppler factor1
Orbital elements
Apogee altitude36,162.074 km
Perigee altitude36,110.657 km
Semi-major axis42,514.502 km
Eccentricity0.0006047
Inclination10.6537°
RAAN51.5225°
Arg. of periapsis217.1499°
True anomaly144.47208°
Mean anomaly144.4318°
Eccentric anomaly144.45194°
Mean motion0.24759 °/min
BSTARUnknown
Orbital period1454 mins
Loading historical data...
26352 neighbors
Authenticating...
Loading maneuver chart data...
Loading historical data...
Loading historical data...
Loading historical data...
Loading historical data...
Loading historical data...
Loading historical data...
Loading historical data...
Other satellites on launch #22 in the year 2000 (2000-05-03 UTC)

GOES 11 Visibility forecast

Observer location: undefined°, undefined

GOES 11 is not visible in the next 10 days
Span
Click to sort rows by Start time (UTC) header in descending order
Start Az.
Max El. time (UTC)
Max El. Az.
Max El.
End time (UTC)
End Az.
|